Location: Gniazdowice
(50.2124°N, 20.2673°E)
Time: 01:51:40
(UTC+00:00)

Cosmos 2228 Rocket - Pass Details

Date: 23 May 2024
Orbit: 616 x 648 km, 82.5° (Epoch: 18 June)

Event Time Altitude Azimuth Distance (km) Brightness Sun altitude
Exits shadow 00:05:25 23° 240° (WSW) 1,338 4.3 -16.4°
Maximum altitude 00:07:27 35° 288° (WNW) 1,024 4.1 -16.3°
Drops below altitude 10° 00:11:37 10° 355° (N) 2,037 6.7 -16.0°
Sets 00:14:03 0° 4° (N) 2,956 7.9 -15.9°
